Member area
Imprimable
Ham-sur-Heure, 05/08/2018, BEL - Trail'Heure
List of reports > 20km - Result
Search: Page: [1]
54 Entries
 
Complains are not accepted anymore. Results are final.
PlaceNrNameAgeNATTimeTkmMoy.ScrCity
1.2067MATHOT Patrice51BEL1:32:264:38 12.988HAM-SUR-HEURE
2.2176MARECHAL Dominique55BEL1:47:155:22 11.1939
3.2194MONTECAVALLI Sergio53BEL1:47:375:23 11.1542
4.2280DECOUX Olivier53BEL1:50:225:32 10.8750
5.2016CARETTE Alain52BEL1:52:425:39 10.6558TEMPLEUVE
6.2152DEPREUME Pascal56BEL1:52:485:39 10.6459
7.2055LAHAYE Philippe54BEL1:54:565:45 10.4471GREZ-DOICEAU
8.2268FARGEAUD Jean Philippe55BEL1:55:405:47 10.3774
9.2100VANWYNSBERGHE Bernard58BEL1:56:405:50 10.2978WALHAIN
10.2270DEMOULIN Alain59BEL1:56:415:51 10.2979
11.2278VANDEPOELE Damien54BEL1:57:045:52 10.2583
12.2049GOFFIN Pascal59BEL1:59:446:00 10.0291MARIEMBOURG
13.2279RASE Bruno50BEL1:59:486:00 10.0292
14.2063LHERMITTE Francis56BEL2:00:466:03 9.9494ARSIMONT
15.2215DURY Jean58BEL2:02:246:08 9.80102
16.2113WILLOCQ Philippe54BEL2:04:096:13 9.67112MONS
17.2234DUBOIS Olivier53BEL2:04:156:13 9.66113
18.2054JAUQUET Daniel53BEL2:04:356:14 9.63117JAMIOULX
19.2009BERNARD Franck50BEL2:07:396:23 9.40132TOURCOING
20.2259FEVRIER Christophe52BEL2:07:426:24 9.40133
21.2010BERNARD Sylvain54BEL2:08:076:25 9.37135HALLUIN
22.2221MARLOYE Luc54BEL2:09:526:30 9.24142
23.2273QUINTIN Jean Jacques57BEL2:12:286:38 9.06154
24.2262SCHARPE Charles52BEL2:13:156:40 9.01158
25.2133FORT Dany52BEL2:14:066:43 8.95163
26.2020CLOQUET Pascal55BEL2:14:146:43 8.94164MARCINELLE
27.2117HOTAT Michel55BEL2:14:586:45 8.89167
28.2282STICKER Johan59BEL2:15:306:47 8.86171
29.2137DENAGTERGAEL Thierry52BEL2:15:496:48 8.84174
30.2258FOURNEAU Philippe58BEL2:16:056:49 8.82175
31.2139HOLE Bernars52BEL2:16:596:51 8.76178
32.2156BAUDUIN Eric51BEL2:17:166:52 8.74179
33.2157PICARO Roberto57BEL2:17:176:52 8.74180
34.2155VAN DER KOOIJ Mark52BEL2:17:426:54 8.72182
35.2160DEWANDEL Laurent54BEL2:18:566:57 8.64189
36.2218GRUIELLE Yannick52BEL2:20:277:02 8.54197
37.2046FOLCQUE Philippe54BEL2:20:347:02 8.54199MALONNE
38.2210LONGEPEE Philippe57BEL2:22:437:09 8.41212
39.2094VANDENBULCKE Francis59BEL2:23:367:11 8.36214MOUSCRON
40.2285DEPRE Francois57BEL2:23:457:12 8.35215
41.2002AUQUIER Herve51BEL2:26:437:21 8.18225WAVRE
42.2175QUERTINMONT Frank51BEL2:30:497:33 7.96231
43.2150HENDRICKX Pierre53BEL2:31:237:35 7.93234
44.2300DAISOMONT Didier51BEL2:33:437:42 7.81237
45.2082RENARD Pascal51BEL2:34:217:44 7.78242SAINT LEGER
46.2123HOBERG Eric54BEL2:36:227:50 7.67247
47.2126VAN DER HEYDEN Axel52BEL2:37:257:53 7.62250
48.2128VAN DER TAELEN Hans53BEL2:37:407:53 7.61252
49.2248WILLIOT Chantal55BEL2:41:248:05 7.43263
50.2106VERVAEKE Willy59BEL2:41:278:05 7.43264COUILLET
51.2276DETROZ Guy54BEL2:43:058:10 7.36265
52.2206DUBOIS Claude56BEL2:52:298:38 6.96273
53.2071NYS Christian56BEL2:59:368:59 6.68278MONT SUR MARCHIENNE
54.2033DENEUFBOURG Bernard58BEL3:27:4010:23 5.78285NALINNES
DNF: did not finish; DSQ: disqualified; Speed in km/h
Page: [1]